TimeCEST,TemperatureF,Dew PointF,Humidity,Sea Level PressureIn,VisibilityMPH,Wind Direction,Wind SpeedMPH,Gust SpeedMPH,PrecipitationIn,Events,Conditions,WindDirDegrees,DateUTC
12:00 AM,50.0,42.8,76,30.18,6.2,WNW,4.6,-,N/A,,Partly Cloudy,300,2012-09-30 22:00:00
5:30 AM,42.8,41.0,93,30.15,-9999.0,East,1.2,-,N/A,,Clear,90,2012-10-01 03:30:00
6:00 AM,42.8,41.0,93,30.15,-9999.0,Calm,Calm,-,N/A,,Clear,0,2012-10-01 04:00:00
6:30 AM,42.8,41.0,93,30.15,-9999.0,Calm,Calm,-,N/A,,Clear,0,2012-10-01 04:30:00
7:00 AM,42.8,41.0,93,30.15,-9999.0,Calm,Calm,-,N/A,,Clear,0,2012-10-01 05:00:00
7:30 AM,42.8,41.0,93,30.15,-9999.0,Calm,Calm,-,N/A,,Clear,0,2012-10-01 05:30:00
8:00 AM,42.8,41.0,93,30.15,6.2,Calm,Calm,-,N/A,,Partly Cloudy,0,2012-10-01 06:00:00
8:30 AM,42.8,41.0,93,30.15,6.2,Calm,Calm,-,N/A,,Partly Cloudy,0,2012-10-01 06:30:00
9:00 AM,42.8,41.0,93,30.15,6.2,Calm,Calm,-,N/A,,Partly Cloudy,0,2012-10-01 07:00:00
9:30 AM,46.4,42.8,87,30.15,6.2,Calm,Calm,-,N/A,,Partly Cloudy,0,2012-10-01 07:30:00
10:00 AM,48.2,44.6,87,30.18,6.2,Calm,Calm,-,N/A,,Partly Cloudy,0,2012-10-01 08:00:00
10:30 AM,50.0,44.6,82,30.18,6.2,Calm,Calm,-,N/A,,Partly Cloudy,0,2012-10-01 08:30:00
11:00 AM,51.8,44.6,76,30.18,6.2,Calm,Calm,-,N/A,,Partly Cloudy,0,2012-10-01 09:00:00
11:30 AM,53.6,44.6,72,30.18,6.2,Calm,Calm,-,N/A,,Partly Cloudy,0,2012-10-01 09:30:00
12:00 PM,57.2,46.4,67,30.18,6.2,NE,1.2,-,N/A,,Partly Cloudy,50,2012-10-01 10:00:00
1:00 PM,59.0,46.4,63,30.18,6.2,NE,1.2,-,N/A,,Partly Cloudy,40,2012-10-01 11:00:00
1:30 PM,60.8,46.4,59,30.15,6.2,West,1.2,-,N/A,,Partly Cloudy,280,2012-10-01 11:30:00
2:00 PM,62.6,46.4,55,30.15,-9999.0,NNW,2.3,-,N/A,,Clear,330,2012-10-01 12:00:00
2:30 PM,64.4,46.4,52,30.15,-9999.0,SSE,1.2,-,N/A,,Clear,150,2012-10-01 12:30:00
3:00 PM,64.4,46.4,52,30.15,-9999.0,ENE,2.3,-,N/A,,Clear,60,2012-10-01 13:00:00
3:30 PM,66.2,42.8,43,30.12,-9999.0,West,2.3,-,N/A,,Clear,280,2012-10-01 13:30:00
4:00 PM,68.0,42.8,40,30.12,-9999.0,North,3.5,-,N/A,,Clear,360,2012-10-01 14:00:00
4:30 PM,69.8,37.4,31,30.12,-9999.0,NNW,1.2,-,N/A,,Clear,340,2012-10-01 14:30:00
5:00 PM,69.8,37.4,31,30.12,-9999.0,NW,5.8,-,N/A,,Clear,310,2012-10-01 15:00:00
5:30 PM,69.8,39.2,33,30.12,-9999.0,NW,4.6,-,N/A,,Clear,320,2012-10-01 15:30:00
6:00 PM,68.0,41.0,37,30.12,-9999.0,North,9.2,-,N/A,,Clear,360,2012-10-01 16:00:00
6:30 PM,68.0,39.2,35,30.12,-9999.0,North,8.1,-,N/A,,Clear,350,2012-10-01 16:30:00
7:00 PM,66.2,33.8,30,30.15,-9999.0,North,9.2,-,N/A,,Clear,350,2012-10-01 17:00:00
7:30 PM,64.4,39.2,40,30.15,-9999.0,North,5.8,-,N/A,,Clear,360,2012-10-01 17:30:00
8:00 PM,60.8,42.8,52,30.15,-9999.0,Calm,Calm,-,N/A,,Clear,0,2012-10-01 18:00:00
8:30 PM,59.0,46.4,63,30.15,-9999.0,Calm,Calm,-,N/A,,Clear,0,2012-10-01 18:30:00
9:00 PM,59.0,46.4,63,30.18,-9999.0,Variable,2.3,-,N/A,,Clear,0,2012-10-01 19:00:00
9:30 PM,57.2,46.4,67,30.18,-9999.0,East,1.2,-,N/A,,Clear,100,2012-10-01 19:30:00
10:00 PM,55.4,46.4,72,30.21,-9999.0,East,3.5,-,N/A,,Clear,100,2012-10-01 20:00:00
10:30 PM,53.6,46.4,77,30.21,-9999.0,East,2.3,-,N/A,,Clear,90,2012-10-01 20:30:00
11:00 PM,53.6,46.4,77,30.21,-9999.0,Calm,Calm,-,N/A,,Clear,0,2012-10-01 21:00:00
11:30 PM,53.6,46.4,77,30.21,-9999.0,Variable,2.3,-,N/A,,Clear,0,2012-10-01 21:30:00